Tous vos exploits sur  Logo Planète Marathon le site 100% Marathon

Marathon de Louisiane (USA)              Donnez votre avis sur l'édition 2018

Le 14/01/2018 - 7ème édition - 920 arrivants.                                                       

Clmt. Temps Nom Prénom Club Organisme Catégorie
1 2:36:31 Schafbuch Ryan (USA) M3034 (+)
2 2:41:45 Hitter John M3539 (+)
3 2:41:58 Barrow Ryan M2529 (+)
4 2:44:44 Lazrus Adam (USA) M2529 (+)
5 2:47:00 Bourg Cory M3539 (+)
6 2:52:53 Buck Glenn M2529 (+)
7 2:53:12 Steib Francis M2529 (+)
8 2:53:28 London Eric M3034 (+)
9 2:53:30 Simoneaux Taylor M2529 (+)
10 2:53:54 Hollander Spencer M2024 (+)
11 2:54:00 Mcdonald Chris M3539 (+)
12 2:54:00 Dupin Joseph ANGELS (+)
13 2:54:32 Zenz Matthew M2529 (+)
14 2:55:05 Lichenstein Charles M3034 (+)
15 2:55:15 Clarot Samuel M2529 (+)
16 2:55:17 Crossen Douglas M2529 (+)
17 2:55:49 Shelton Kaleb M2024 (+)
18 2:56:26 Funderburg Jason M3034 (+)
19 2:57:49 Davis Kyle M2529 (+)
20 2:57:49 Gaspard Andrew M2529 (+)
21 2:58:14 Mehall John M2024 (+)
22 2:58:30 Blaha Ondrej M3034 (+)
23 2:59:04 Rowan Brian M5559 (+)
24 2:59:20 Buchhorn Matt M3034 (+)
25 2:59:29 Capps Josh M4044 (+)
26 3:00:02 Linck Andrea F2529 (+)
27 3:00:13 Van Dorn Brett M2529 (+)
28 3:00:36 Bernstein John M2529 (+)
29 3:01:29 Knight Samuel M2529 (+)
30 3:02:34 Boudreaux Stephen M2024 (+)
31 3:03:34 Redlich Gunther M2024 (+)
32 3:03:35 Cousart Frank M3034 (+)
33 3:03:37 Theriot David M4044 (+)
34 3:04:02 Harris Brian M2024 (+)
35 3:04:58 Amoroso Samuel M4044 (+)
36 3:05:07 Natalini Amy F3539 (+)
37 3:05:20 Millard Joshua M4044 (+)
38 3:05:53 Ochoa Pedro M2024 (+)
39 3:06:36 Schahet Greg M4044 (+)
40 3:07:06 Karl Mike M5559 (+)
41 3:07:37 Hebert Elton M4044 (+)
42 3:07:44 Mcneill Kevin M2024 (+)
43 3:07:59 Eddards Brandon M3539 (+)
44 3:08:02 Dosier Dan M4044 (+)
45 3:08:32 Dollas Beth F4044 (+)
46 3:08:53 Kirchner Travis M2529 (+)
47 3:08:55 Fall Lawson M3539 (+)
48 3:09:55 Lilley Sean M4549 (+)
49 3:10:22 Chaisson Justin M3539 (+)
50 3:10:51 Peterson John M4044 (+)
51 3:11:15 Slaven Gary M4044 (+)
52 3:11:27 Jones Jessica F3034 (+)
53 3:12:08 Bell Scott M3539 (+)
54 3:13:32 Olsen Brian M5559 (+)
55 3:13:40 Lang Jeff M5054 (+)
56 3:14:03 Oswalt Bradley M3539 (+)
57 3:14:20 Diaz Tony M5054 (+)
58 3:14:38 Musgrove Alison F4044 (+)
59 3:14:39 Parker Lyle M6064 (+)
60 3:15:33 King Marvin M4044 (+)
61 3:15:44 Connolly Timothy M3539 (+)
62 3:15:46 Matarese Joseph (USA) M5054 (+)
63 3:16:52 Kracht Justin M3539 (+)
64 3:16:54 Grant Steve M4549 (+)
65 3:17:00 Kwon Deukwoo M4549 (+)
66 3:17:03 Snow Jimmy M3539 (+)
67 3:17:16 Hardin Tom M4549 (+)
68 3:17:29 Miles Trent M3034 (+)
69 3:17:53 Johnson Jared M3539 (+)
70 3:17:59 Melancon Ed M4549 (+)
71 3:18:48 Borchardt Dave M3539 (+)
72 3:19:10 Lasalle Ashley F4044 (+)
73 3:19:15 Geht Solomon M3034 (+)
74 3:19:27 Linder Rebecca F2529 (+)
75 3:19:36 Scandurro Dewey M4549 (+)
76 3:20:53 Howard Jeremy M4549 (+)
77 3:21:08 Johnson Clarence M3539 (+)
78 3:21:10 Collofello Michael M4044 (+)
79 3:21:12 Cai Cexun M3539 (+)
80 3:21:40 Gudenkauf Kimberly F4549 (+)
81 3:21:52 Kysela Daniel M3034 (+)
82 3:22:14 Blessing Ben M3034 (+)
83 3:22:27 Roland Layne F2529 (+)
84 3:22:38 Franco Rebecca F2024 (+)
85 3:22:42 Martin Spencer M4549 (+)
86 3:22:44 Rodgers Kelci F3034 (+)
87 3:22:52 Collins William M4549 (+)
88 3:23:02 Cave Michael M4549 (+)
89 3:23:29 Bredehoft Michael M3539 (+)
90 3:23:39 Moriyama Junya M3539 (+)
91 3:23:57 Scott Robert M4549 (+)
92 3:24:14 Mondragon Carmelo M4549 (+)
93 3:24:19 Patin Jeanne-claire F2529 (+)
94 3:24:26 Patin Ryan M3034 (+)
95 3:24:45 Schmitz Pam F3034 (+)
96 3:24:45 Walker Elise F3034 (+)
97 3:25:18 Harvey Doug M4044 (+)
98 3:25:30 Herpin Mark M4549 (+)
99 3:26:04 Moran Scott M3539 (+)
100 3:26:13 Fair Steven M4549 (+)
101 3:26:14 Brignac Victoria F3034 (+)
102 3:26:17 Duncan Michael M4549 (+)
103 3:26:20 Butler Patrick M2024 (+)
104 3:26:46 Say Parker M2024 (+)
105 3:27:13 Knutson Bradley M2529 (+)
106 3:27:14 Landry Sam M5559 (+)
107 3:28:11 Barton Jacob M3539 (+)
108 3:29:03 Currier Katherine F2024 (+)
109 3:29:14 Sopper Alex M3034 (+)
110 3:29:26 Carsky Katie F2024 (+)
111 3:29:32 Mcmahon Neal M5054 (+)
112 3:29:35 Ehrle Aaron M3034 (+)
113 3:29:42 Elfert Jeanne F3539 (+)
114 3:29:43 Karner Melissa F3034 (+)
115 3:30:02 Redmon Jordan M2529 (+)
116 3:30:11 Morgan Monica F3034 (+)
117 3:31:28 Stelly Jacqueline F3034 (+)
118 3:31:28 Howell Jennifer F3034 (+)
119 3:31:33 Thompson Katie F3034 (+)
120 3:31:58 Rider Kristen F2529 (+)
121 3:32:05 Labat Khanh F3539 (+)
122 3:32:10 Georgas Halley F4044 (+)
123 3:32:15 Roussel Ross M5559 (+)
124 3:32:19 Brown Kathy F3034 (+)
125 3:32:40 Bahlawan Brandon M3539 (+)
126 3:32:55 Sampson Tyrone M2529 (+)
127 3:33:16 Gordon Charles M4549 (+)
128 3:33:17 Komplin Todd M4549 (+)
129 3:33:34 Maxwell Brittany F3034 (+)
130 3:33:38 Sanchez David M5559 (+)
131 3:33:40 Hubbard Stephen M4549 (+)
132 3:33:46 Cave Nicki F4044 (+)
133 3:33:48 Sokoloski Steve M3539 (+)
134 3:33:54 Allen Jacob M3034 (+)
135 3:33:58 Deshotel Kyle M5559 (+)
136 3:34:36 Petley Daniel M5054 (+)
137 3:34:39 Beale Breanna F2529 (+)
138 3:34:39 Wilson Chad M4044 (+)
139 3:35:03 Fredricks Mia F2024 (+)
140 3:35:25 Penniman George M1619 (+)
141 3:35:26 Annaloro Patrick M2024 (+)
142 3:36:01 Howard Zachary M3034 (+)
143 3:36:29 Love Bobby M3539 (+)
144 3:36:36 Patrick Randa F5054 (+)
145 3:37:00 Smith Dan M4044 (+)
146 3:37:10 Bower Brandy F3539 (+)
147 3:37:15 Janis Dan M4044 (+)
148 3:37:15 Myrick Sarah F2529 (+)
149 3:37:57 Camurota Devon F2529 (+)
150 3:37:58 Gronowski Zack M1619 (+)
151 3:38:01 Washam Dustin M3539 (+)
152 3:38:03 Wiggins Leonard M3539 (+)
153 3:38:04 Lance Philip M4044 (+)
154 3:38:15 Burke Louis M4044 (+)
155 3:38:18 Koelbli Rob M5559 (+)
156 3:38:46 Rush Bobby M3539 (+)
157 3:39:06 Preis Michael M3539 (+)
158 3:39:11 Newton Amy F4044 (+)
159 3:39:22 Garcia Jessica F3034 (+)
160 3:39:25 Mauterer Art M5054 (+)
161 3:39:31 Fair Beverly F4549 (+)
162 3:39:42 Sevilla Oscar M3539 (+)
163 3:39:51 Gould Izzy M4044 (+)
164 3:39:53 Stevens Lauren F3539 (+)
165 3:40:38 Baker Ernest M4044 (+)
166 3:40:44 Newell Sean M4044 (+)
167 3:40:45 Lewis Emily F2529 (+)
168 3:40:51 Boatman Tony M5559 (+)
169 3:41:03 Reed David M4044 (+)
170 3:41:13 Reed Michelle F4044 (+)
171 3:41:34 Jacobson Gwen F5559 (+)
172 3:41:34 Mccullough Cole M1619 (+)
173 3:41:44 Hill Joel M4044 (+)
174 3:41:44 Laplant Jessica F4044 (+)
175 3:41:52 Callegan Adam M1619 (+)
176 3:41:59 Ford Ken M5054 (+)
177 3:42:23 Hill Deidre F4044 (+)
178 3:42:37 Henschen Joel M3034 (+)
179 3:42:45 Weitzner Daniel M2529 (+)
180 3:42:53 Blanchard Justin M3539 (+)
181 3:43:04 Mackenzie David M6569 (+)
182 3:43:20 Nelson Jesse M3539 (+)
183 3:43:35 Doring Patrick M3034 (+)
184 3:43:37 Mcdaniel Jane F3034 (+)
185 3:44:07 Tanahashi Hiromitsu M4044 (+)
186 3:44:11 Dykes Kristin F3034 (+)
187 3:44:12 Beadle Meaghan F3034 (+)
188 3:44:15 Higgins Jaimie F4044 (+)
189 3:44:29 Wainwright Brett M2529 (+)
190 3:44:29 Gosselin Jaimie (USA) F3539 (+)
191 3:44:37 Vossen Kevin M3034 (+)
192 3:44:45 Sotile Joseph M1619 (+)
193 3:44:47 Kempa August M3034 (+)
194 3:45:08 Anderson Stacy F5054 (+)
195 3:45:10 Crumley Mary F2529 (+)
196 3:45:15 Samuel Lenny M4044 (+)
197 3:45:17 Scott Patrick M4549 (+)
198 3:45:19 Bovino Scott M5054 (+)
199 3:45:21 Hurst Meghan F3539 (+)
200 3:45:50 Horn Audrey F3034 (+)
201 3:46:01 Heilman Nathan M3539 (+)
202 3:46:08 Staal Mike M3539 (+)
203 3:46:11 Zee Isabelle F2529 (+)
204 3:46:13 Flanagan Erin F2529 (+)
205 3:46:22 Bolde Randy M3539 (+)
206 3:46:22 Mills Melanie F3539 (+)
207 3:46:27 Sistrunk Hal M4549 (+)
208 3:46:29 Fronsoe Michael M5559 (+)
209 3:46:31 Santiago Karen F3034 (+)
210 3:46:36 Lasseigne Kensie F3539 (+)
211 3:46:38 Trahan Jude M4044 (+)
212 3:47:12 Wnuk Kory M5054 (+)
213 3:47:15 Stoll Laurel F3034 (+)
214 3:47:15 Soto Will M4044 (+)
215 3:47:31 Sanders Eric M5054 (+)
216 3:48:30 Riley Tony M3034 (+)
217 3:48:38 Plickebaum Terry M5054 (+)
218 3:48:41 Sidloski Myron M6569 (+)
219 3:48:42 Morris Sarah F4549 (+)
220 3:48:51 Abela Kathy F5054 (+)
221 3:49:06 Craig Brian M3539 (+)
222 3:49:14 Paul Claude M4549 (+)
223 3:49:15 Hamilton James M2024 (+)
224 3:49:27 Carducci Erin F3034 (+)
225 3:49:32 Guillory Jesse M3539 (+)
226 3:49:53 Hahn Stephanie F4044 (+)
227 3:50:04 Marcella Lauren F4549 (+)
228 3:50:14 Ahmed Wasiu M3539 (+)
229 3:50:15 Price Heather F4044 (+)
230 3:50:22 Gelobter Evan M3539 (+)
231 3:50:39 Lopez Bego F4549 (+)
232 3:50:59 Dickerson Misty F4044 (+)
233 3:51:09 Travis Tina F4549 (+)
234 3:51:11 Strobel Lisa F4044 (+)
235 3:51:18 Andries Claire F1619 (+)
236 3:51:19 Berres Brenda F4044 (+)
237 3:51:19 Verrett Kevin M4549 (+)
238 3:51:24 Balhoff Mark M3034 (+)
239 3:51:24 Dupre Corey M2529 (+)
240 3:51:27 Mckinney Tammy F5054 (+)
241 3:51:28 Krums Janis M3034 (+)
242 3:51:38 Ruark Michaela F2529 (+)
243 3:51:39 Susko David M2529 (+)
244 3:51:44 Harilal Kaitnarine M4549 (+)
245 3:51:52 Mallard Tiffany F3034 (+)
246 3:51:59 Denicola Matthew M1619 (+)
247 3:52:00 Zyduck Tammy F5054 (+)
248 3:52:02 Cheek Jaso M3539 (+)
249 3:52:08 Vanio Jr. Rick M5054 (+)
250 3:52:11 Lichenstein Casey F3034 (+)
251 3:52:17 Reinert Tim M5559 (+)
252 3:52:34 Muellner Doug M6064 (+)
253 3:52:56 Matsunaga Jared M4044 (+)
254 3:52:56 Martinez Michael M4549 (+)
255 3:52:57 Delatte Rachel F2529 (+)
256 3:53:20 Blake Gordon M3539 (+)
257 3:53:52 Modenbach Charles M6064 (+)
258 3:53:58 Ram Ramadurai M5054 (+)
259 3:54:12 Dupin Jessica F4044 (+)
260 3:54:15 Deavers York M4549 (+)
261 3:54:18 Bassler Macy F2024 (+)
262 3:54:23 Nettles Scott M3034 (+)
263 3:54:25 Evans Mackenzie F2024 (+)
264 3:54:53 Hasenkampf Jesse M3539 (+)
265 3:55:04 Jennings John M3034 (+)
266 3:55:07 Radnitzer Rachel F2529 (+)
267 3:55:23 Bishop Lucinda F3539 (+)
268 3:55:25 Thomas Dean M5054 (+)
269 3:55:41 Pendleton Aaron M3539 (+)
270 3:55:41 Andersson Dan M5054 (+)
271 3:55:59 Brezee Shane M5054 (+)
272 3:56:00 Singletary Ken M4549 (+)
273 3:56:09 Moore Angela F3539 (+)
274 3:56:09 Van Devender Maureen F5054 (+)
275 3:56:11 Newsom Rodney M4549 (+)
276 3:56:19 Draper Renee F4044 (+)
277 3:56:29 Sciortino Trey M2529 (+)
278 3:56:34 Thomas Katherine F2529 (+)
279 3:56:35 Smith Amy F3539 (+)
280 3:56:57 Carrier Cara F3539 (+)
281 3:57:11 Scallan Chad M3034 (+)
282 3:57:14 Mcleod William M4549 (+)
283 3:57:19 Hoyt Charles M2024 (+)
284 3:57:28 Musso Mark M4549 (+)
285 3:57:30 Maze Jared M4044 (+)
286 3:57:33 Flaherty Kevin M5054 (+)
287 3:57:33 Flaherty Melanie F2024 (+)
288 3:58:06 Alavarado Blanco Josefina Mayela F5559 (+)
289 3:58:08 Rooney Thomas M6064 (+)
290 3:58:23 Morrison Heath M3539 (+)
291 3:58:27 Ruiz John M5054 (+)
292 3:58:31 Cochran Lyndsey F3539 (+)
293 3:58:31 Hooper Jennifer F3034 (+)
294 3:58:32 Dalton Chad M4044 (+)
295 3:58:34 Hines Randall M6064 (+)
296 3:58:44 Guillory Sarah F3539 (+)
297 3:58:52 Robichaux George M6064 (+)
298 3:58:54 Spencer Richard M6064 (+)
299 3:58:56 Pourciau Shawn M4549 (+)
300 3:58:57 Mccord Kevin M4044 (+)
301 3:58:58 Hooper Myrna F4549 (+)
302 3:58:58 Charlet Jordan M4044 (+)
303 3:58:58 Colligan Buddy F15UN (+)
304 3:59:00 Runner Unknown M???? (+)
305 3:59:11 Borchardt Ann Elise F3034 (+)
306 3:59:16 Quebedeaux Patrick M3539 (+)
307 3:59:18 Holliday Matthew M3539 (+)
308 3:59:31 Plattsmier Lauren F3034 (+)
309 4:00:15 Autin James M3034 (+)
310 4:00:28 Farrow Joseph M1619 (+)
311 4:00:36 Wisler Ryan M2529 (+)
312 4:01:10 Lee Joon Ki M6064 (+)
313 4:01:15 Caton Jeff M3539 (+)
314 4:01:20 Anderson Heather F2529 (+)
315 4:01:24 Ferguson Matt M2529 (+)
316 4:01:32 Stotts Randall M5054 (+)
317 4:01:33 Hinton Cindy F5054 (+)
318 4:01:36 Smith Lee M4044 (+)
319 4:01:44 Jenkins Kathy F5559 (+)
320 4:01:45 Robinson Marty M5054 (+)
321 4:01:48 Reyes Liberty F3539 (+)
322 4:02:04 Abarca David M3539 (+)
323 4:02:08 Stanley Marc M4549 (+)
324 4:02:08 Stoyles Amy F3539 (+)
325 4:02:09 Woolston Matt M4549 (+)
326 4:02:09 Meadows Karen F5054 (+)
327 4:02:15 Anes Madeline F2529 (+)
328 4:02:16 Sauve Isabelle F4044 (+)
329 4:02:16 Seguin Bruno M4044 (+)
330 4:02:28 Freeman Barton M4549 (+)
331 4:02:48 Brophy Juliet F3539 (+)
332 4:03:18 Perret Teddi F4549 (+)
333 4:03:33 Cash Jo M4044 (+)
334 4:03:49 Swan Kevin M3539 (+)
335 4:04:06 Hogg Teresa F4549 (+)
336 4:04:14 Washam Aimee F3539 (+)
337 4:04:15 Silwal Suman M4549 (+)
338 4:04:25 Sheppard (leach) Krista F3539 (+)
339 4:04:57 Kim Robert M3539 (+)
340 4:05:11 Duplechin Aaron M4044 (+)
341 4:05:14 Granier Margaret F2024 (+)
342 4:05:49 Rials Elizabeth F3539 (+)
343 4:06:34 Chen Huey Gia F3539 (+)
344 4:06:40 Howland Michael M4044 (+)
345 4:06:45 Perri Thomas M5559 (+)
346 4:06:46 Ferrell Chip M3034 (+)
347 4:06:50 Backstrom Shawn M2529 (+)
348 4:07:19 Pelitire Scott M4549 (+)
349 4:07:30 Goldsmith Richard M5559 (+)
350 4:07:44 Cagle Patricia F5559 (+)
351 4:08:00 Lissarrague Roy M4549 (+)
352 4:08:01 Lee Reagan F1619 (+)
353 4:08:02 Rees Barney M5559 (+)
354 4:08:17 Dew Jr M4549 (+)
355 4:08:22 Pickering Tj M3034 (+)
356 4:08:29 Judd Holly F3034 (+)
357 4:08:30 Murphy Terry M6064 (+)
358 4:08:34 Duffy Thomas M3539 (+)
359 4:08:43 Bennett Jason M4044 (+)
360 4:08:46 Mire Erin F2529 (+)
361 4:08:53 Walstra Astrid F3539 (+)
362 4:09:05 Margherio Tony M3034 (+)
363 4:09:16 Barlow Bret M5559 (+)
364 4:09:18 Skrandel Danielle F3539 (+)
365 4:09:22 Heller Sylvia F3034 (+)
366 4:09:28 Hong Sunhwa F5054 (+)
367 4:09:49 Lagrange Jennifer F3034 (+)
368 4:10:04 Gordon Ron M4044 (+)
369 4:10:14 Hunt Daniel M4044 (+)
370 4:10:45 Musick Robert M5054 (+)
371 4:11:22 Oshaughnessy Vincent M5559 (+)
372 4:11:24 Baith Owen M4044 (+)
373 4:11:29 Grzegorczyk Kelsey F2529 (+)
374 4:12:11 Johnson Dan M6064 (+)
375 4:12:13 Whittington Alan M3539 (+)
376 4:12:26 Hilliard Nopparat F4549 (+)
377 4:12:31 Lacroix Kurt M4549 (+)
378 4:12:38 Montgomery Joe King M3539 (+)
379 4:12:53 Griffith Phillip M4549 (+)
380 4:13:00 Blanchard Constance F3034 (+)
381 4:13:34 Powell James M4044 (+)
382 4:14:00 Schexnayder C. M3034 (+)
383 4:14:38 Crowdus Joshua M2529 (+)
384 4:14:40 Green Katie F2529 (+)
385 4:14:54 King Mark M4044 (+)
386 4:14:59 Farrow C. Ben M4549 (+)
387 4:15:17 Owen Derek M4044 (+)
388 4:15:35 Gray Claire F2529 (+)
389 4:15:35 Ferrell Allison F2529 (+)
390 4:15:39 Yoest Janet F5054 (+)
391 4:15:39 Tsumura Miho F4044 (+)
392 4:15:48 Zaworski Erica F3034 (+)
393 4:15:58 Mathias Zach M2529 (+)
394 4:15:59 Bailey Summer F3539 (+)
395 4:16:06 Flickinger Justin M3539 (+)
396 4:16:10 Wilson Zac M3539 (+)
397 4:16:22 Cope Ryan M4549 (+)
398 4:16:22 Moss Trent M3034 (+)
399 4:16:23 Mcgehee Michael M5054 (+)
400 4:16:25 Rehm Krissy F3539 (+)
401 4:16:39 Paddock Brandon M3539 (+)
402 4:16:39 Williams Leticia F4044 (+)
403 4:16:59 Manuel Marcus M4044 (+)
404 4:17:02 Weldon Brooke F2024 (+)
405 4:17:18 Roten Ryan M2529 (+)
406 4:17:21 Klimt Wesley M3034 (+)
407 4:17:25 Shoptaugh Katy F2529 (+)
408 4:17:27 Martinez Carmen F3539 (+)
409 4:17:39 Lavoie Sarah F3539 (+)
410 4:17:47 O'donnell Erin F4549 (+)
411 4:17:57 Leboutillier Ben M2024 (+)
412 4:18:00 Evans Jeffery M4044 (+)
413 4:18:08 Ratcliff Eric M3539 (+)
414 4:18:43 Rhodes Michael M5559 (+)
415 4:18:45 Capps Tracy F3539 (+)
416 4:18:49 Decker Ellen F3539 (+)
417 4:18:50 Boudreaux Brandi F4044 (+)
418 4:19:11 Bergeron Beau M4549 (+)
419 4:19:18 Thibodeaux Patrick M5559 (+)
420 4:19:21 Vallee Michael M5054 (+)
421 4:19:23 O'shea Stefanie F3539 (+)
422 4:19:25 Hebert Jason M3539 (+)
423 4:19:28 Rumfellow Glenn M4549 (+)
424 4:19:44 Brunet Brian M4549 (+)
425 4:19:46 Harris John M2024 (+)
426 4:19:52 Hebert Corie F5054 (+)
427 4:19:55 Moon Hailey F3034 (+)
428 4:20:05 Nation Nina F4044 (+)
429 4:20:26 Liang Frank M4549 (+)
430 4:20:48 Lambert Amy F5054 (+)
431 4:20:57 Paganuzzi Victor M4549 (+)
432 4:21:11 Occena Kathleen F5054 (+)
433 4:21:23 Fisher James M3539 (+)
434 4:21:31 Finnegan Carol F5054 (+)
435 4:21:32 Kile Lindsey F3034 (+)
436 4:21:34 Komplin April F3034 (+)
437 4:21:42 Massett Kenneth M6064 (+)
438 4:21:57 Schwarz Jorge M4549 (+)
439 4:22:02 Chura Madeleine F2024 (+)
440 4:22:12 Bobadilla Gastelum Brenda F3034 (+)
441 4:22:26 Ortiz Carmelina F4549 (+)
442 4:22:45 Lynch Erin F3539 (+)
443 4:22:52 Emerson Brittany F3539 (+)
444 4:23:05 Garcia Erin F3034 (+)
445 4:23:06 Anding Jack M5559 (+)
446 4:23:13 Gallagher Megan F3034 (+)
447 4:23:18 Williams Amanda F3539 (+)
448 4:23:21 Pultz David M5054 (+)
449 4:23:30 Lamont Katie F2024 (+)
450 4:23:35 Mondragon Maria F4549 (+)
451 4:23:37 Delawder Tim M5054 (+)
452 4:23:42 Trahan Melissa F2529 (+)
453 4:23:42 Bertrand Jennifer F4044 (+)
454 4:23:45 Bertrand Glynn M4044 (+)
455 4:24:00 Fronsoe Sonya F4549 (+)
456 4:24:03 Rider Rhagan F2024 (+)
457 4:24:10 Dryden Jackie F4044 (+)
458 4:24:28 Gillespie Andrew M5054 (+)
459 4:24:29 Walden Katie F5054 (+)
460 4:24:32 Daigle Melanie F3539 (+)
461 4:24:35 Lithgoe Brandon M3539 (+)
462 4:24:41 Leleux Kevin M5054 (+)
463 4:25:09 Naquin Matthew M3034 (+)
464 4:25:09 Naquin Jesse F3539 (+)
465 4:25:10 Brooks Jennifer F4549 (+)
466 4:25:10 Douet Kevin M3539 (+)
467 4:25:16 Stevenson Colin M4044 (+)
468 4:25:31 Mills Chris M3539 (+)
469 4:25:52 Griffin Phillip M3539 (+)
470 4:25:57 Givens Ethan M2529 (+)
471 4:25:59 Corbin Carol F3034 (+)
472 4:26:13 Gravelle Diane F5054 (+)
473 4:26:17 Chambers Lisa F5559 (+)
474 4:26:18 Sprehn Charlotte F2529 (+)
475 4:26:18 Simpson Randall M6064 (+)
476 4:26:21 Goodner Ben M3034 (+)
477 4:26:31 Clark Will M1619 (+)
478 4:26:33 Schoenig Jessica F2529 (+)
479 4:26:36 Curry Hannah F3539 (+)
480 4:26:53 Mcveigh James M4044 (+)
481 4:27:27 Lang Trina F4549 (+)
482 4:27:34 Henderson Roddy M4549 (+)
483 4:27:59 Li Anna F3539 (+)
484 4:28:11 Dupre Jordan F2529 (+)
485 4:28:24 Meador Caitlin F2529 (+)
486 4:28:28 Kile Nathan M4044 (+)
487 4:28:44 Jacobson Howard M5054 (+)
488 4:29:03 Naquin Wally M4549 (+)
489 4:29:03 Thomassie Jonathan M4044 (+)
490 4:29:03 Naquin Nicole F4044 (+)
491 4:29:07 Peterson Ralph M4549 (+)
492 4:29:12 Donohue Kimberly F3539 (+)
493 4:29:19 Lindsay Darla F4549 (+)
494 4:29:34 Coburn Brittany F2529 (+)
495 4:29:39 Raymond Joe M3034 (+)
496 4:29:39 Anderson Craig M5054 (+)
497 4:29:49 Thompson Jeremy M3539 (+)
498 4:30:08 Sanchez Karen F5559 (+)
499 4:30:13 Watkins Joshua M3539 (+)
500 4:30:20 Wisler Sheena F2529 (+)
501 4:30:22 Dangol Kiran M2024 (+)
502 4:30:25 Trahan Mark M4044 (+)
503 4:30:42 Brumund Michael M4549 (+)
504 4:31:10 Hallet Mary F4549 (+)
505 4:31:25 Holmes Kenneth M5054 (+)
506 4:31:27 Taussig Jennifer F3539 (+)
507 4:31:39 Stockman Rebecca F5054 (+)
508 4:31:41 Grube Madison F2529 (+)
509 4:31:42 Carter Joel M5054 (+)
510 4:31:42 Cobb Robin F3034 (+)
511 4:31:43 Luebking Michael M3034 (+)
512 4:31:58 Scheman Laura F5559 (+)
513 4:32:19 Taylor Rebecca F4549 (+)
514 4:32:33 Cespedes David M5054 (+)
515 4:32:37 Hughes Thomas M3034 (+)
516 4:32:43 Dixon Lisa F4549 (+)
517 4:33:03 Manci Davis M3539 (+)
518 4:33:42 Van Way Chris M5559 (+)
519 4:33:55 Prutz Stan M6064 (+)
520 4:34:01 Choi Helen F4044 (+)
521 4:34:03 Tiritilli Greg M4044 (+)
522 4:34:22 Zaunbrecher Copeland M2024 (+)
523 4:34:24 Cibert Allan M6064 (+)
524 4:34:29 Crawford Sarah F3034 (+)
525 4:34:55 Farris Bob M2529 (+)
526 4:34:58 Kraus Emily F3034 (+)
527 4:35:06 Schexnaydre Erin F2529 (+)
528 4:35:17 Bickham Dameon M3539 (+)
529 4:35:24 Kazik Eve F5054 (+)
530 4:35:28 Howard Rebecca F3034 (+)
531 4:35:28 Evans Jay M5559 (+)
532 4:35:50 Wentz Garrett M2529 (+)
533 4:35:54 Giles Jimmy M5054 (+)
534 4:35:56 Mayo Chris M4044 (+)
535 4:36:00 Randow Ben M4044 (+)
536 4:36:07 Peddireddy Venu M3539 (+)
537 4:36:28 Leuthold Susie F4549 (+)
538 4:36:35 Piser Brandy F3034 (+)
539 4:36:36 Callis Burks Chris M5054 (+)
540 4:36:36 Winters Kirk M4549 (+)
541 4:36:43 Thomas Terrel F4044 (+)
542 4:36:44 Kahn Jeannine F4549 (+)
543 4:36:56 Lomax Lance M3539 (+)
544 4:36:59 Rodney Teresa F3034 (+)
545 4:36:59 Dysart Kayla F3034 (+)
546 4:37:15 Richardson Karin F4044 (+)
547 4:37:15 Steinhauer Ivins M6569 (+)
548 4:37:23 Bell Dave M5559 (+)
549 4:37:27 Farrow Abigail F2024 (+)
550 4:37:28 Huynh Vinh M4549 (+)
551 4:37:39 Allbright Callie F2529 (+)
552 4:37:44 Clement Stephen M4044 (+)
553 4:38:00 Guidry Matthew M3034 (+)
554 4:38:09 Rovira Alan M4549 (+)
555 4:38:20 Burress Greg M4549 (+)
556 4:39:17 Gibbs Ryan M3539 (+)
557 4:39:23 Gamberi Jeff M4044 (+)
558 4:39:23 Holmes Steven M5559 (+)
559 4:39:28 Cronan Nicholas M3539 (+)
560 4:39:32 Dyer Kristy F4549 (+)
561 4:39:34 Akert Cheryl F3539 (+)
562 4:40:09 Castasus James M4044 (+)
563 4:40:26 Baynham John M5559 (+)
564 4:40:35 Hollier Angelle F4044 (+)
565 4:40:46 Pao Chih M4549 (+)
566 4:40:47 Batton Christopher M2529 (+)
567 4:40:49 Troup Peter M4044 (+)
568 4:41:01 Pryor Kathy F6064 (+)
569 4:41:12 Dugard Logan M2529 (+)
570 4:41:34 Boudreaux Catherine F3034 (+)
571 4:41:43 Thurmon Mark M5054 (+)
572 4:41:52 Pocorello Anthony M4549 (+)
573 4:41:57 Johns Leslie F3539 (+)
574 4:41:58 Cooper Meredith F2529 (+)
575 4:42:25 Koeppel Florian M3034 (+)
576 4:42:28 Dixon Sandra F5559 (+)
577 4:42:37 Gross Tony M3539 (+)
578 4:43:03 Mannino Josh M3034 (+)
579 4:43:04 Clark Jill F4044 (+)
580 4:43:05 Pastorick Courtney F3034 (+)
581 4:43:08 Timmons Elizabeth F5559 (+)
582 4:43:24 Jamieson Lynn F7074 (+)
583 4:43:37 Buckler Douglas M4044 (+)
584 4:43:47 Steinhauer Samuel M6064 (+)
585 4:43:48 Steinhauer Tyler M3034 (+)
586 4:44:05 Stephens John M6064 (+)
587 4:44:08 Langford Kathy F6064 (+)
588 4:44:19 Mucha Paige F5559 (+)
589 4:44:23 Rice Megan F2024 (+)
590 4:44:23 Mcclendon Donna F4044 (+)
591 4:44:34 Winters Emily F2024 (+)
592 4:44:34 Littrell Lisa F2529 (+)
593 4:44:53 Garten Carole F5054 (+)
594 4:45:15 Rice Raymond M5054 (+)
595 4:45:23 Waguespack Anna F3034 (+)
596 4:45:44 Basso Jessica F2529 (+)
597 4:45:48 Alexander Steve M5054 (+)
598 4:45:59 Gulotta Benjamin M3539 (+)
599 4:46:39 Benton Mike M4044 (+)
600 4:46:43 Dunn Jeff M3539 (+)
601 4:46:48 Devine Jeff M5054 (+)
602 4:46:58 Vu Theresa F6064 (+)
603 4:47:02 Sullivan Katrina F2529 (+)
604 4:47:02 Sullivan Tara F2529 (+)
605 4:47:24 Benton Ryan M2529 (+)
606 4:47:27 Vandenbelt Garret M6064 (+)
607 4:47:44 La Lone Sara F2024 (+)
608 4:47:45 Jones Jessica F3034 (+)
609 4:48:07 Keys Perryn M4044 (+)
610 4:48:11 Brooksher Mauree F3034 (+)
611 4:48:11 Nelson Sarah F3034 (+)
612 4:48:36 Sanchez Michael M3539 (+)
613 4:48:38 Michelson Catherine F3539 (+)
614 4:48:47 Sparks Zachary M2024 (+)
615 4:49:11 Alberts Steven M4549 (+)
616 4:49:12 Alberts Michelle F4044 (+)
617 4:49:23 Koteles Roxanne F6064 (+)
618 4:49:25 Gay Robert M4044 (+)
619 4:49:51 Alch Katherine F2529 (+)
620 4:49:51 Elder Rebecca F2024 (+)
621 4:50:32 Cooper Lindsey M5559 (+)
622 4:50:36 Steere Kenneth M6064 (+)
623 4:50:38 Kennedy Jonathan M3034 (+)
624 4:51:05 Lebreton David M3034 (+)
625 4:51:07 Machado Michael M4044 (+)
626 4:51:18 Mattox Heather F3539 (+)
627 4:51:34 Carmon Amanda F4549 (+)
628 4:51:53 Kunkle Ginger F3034 (+)
629 4:51:55 Domingue Chris M4549 (+)
630 4:52:12 Kessler Rachel F3034 (+)
631 4:52:18 Ridgaway Christy F4044 (+)
632 4:52:22 Mitchell Cortney F2529 (+)
633 4:52:33 Pechal Sharon F5054 (+)
634 4:52:43 Pool Kyler M2529 (+)
635 4:52:49 Dehart Lauren F3539 (+)
636 4:52:51 Voisin Troy M4549 (+)
637 4:52:55 Christy Josh M3034 (+)
638 4:53:03 Gillespie Karen F4549 (+)
639 4:53:09 Weger John M5559 (+)
640 4:53:51 Gerland Diana F5559 (+)
641 4:53:52 Suberbielle Brian M4549 (+)
642 4:53:55 Mineo Craig M5054 (+)
643 4:54:56 Doyal Samantha F4044 (+)
644 4:55:14 Zywicke Gwendolyn F5054 (+)
645 4:55:42 Frye Rebecca F4044 (+)
646 4:55:43 Norman Jamil F4044 (+)
647 4:55:43 Causey Linda F4549 (+)
648 4:56:09 Fontenot Kane M3539 (+)
649 4:56:11 Antonides Bradley M4549 (+)
650 4:56:17 Augustine Darrell M2529 (+)
651 4:56:27 Rodriguez Michelle F2529 (+)
652 4:56:32 Rickert Melissa F4549 (+)
653 4:56:48 Weldon Patrick M5054 (+)
654 4:56:51 Checkai Dean M3539 (+)
655 4:57:08 Weldon Stephanie F4549 (+)
656 4:57:55 Gerdts James M4549 (+)
657 4:57:55 Johnson Laree F4549 (+)
658 4:58:22 Vanstraten Shari F4549 (+)
659 4:58:22 Gong William M4549 (+)
660 4:58:34 Breaux Michael M4549 (+)
661 4:58:37 Nguyen Chris M4044 (+)
662 4:58:39 Haley Hunter M2529 (+)
663 4:58:43 Hebert Meagan F2529 (+)
664 4:58:50 Horent Eric M4549 (+)
665 4:58:57 Schuder Jessica F3034 (+)
666 4:59:15 Donaldson Ashley F3034 (+)
667 4:59:16 Barksdale Heather F3539 (+)
668 4:59:16 Westin Ryan M3539 (+)
669 4:59:24 Hampton Brandy F3539 (+)
670 4:59:31 Atherton Erin F5054 (+)
671 4:59:57 Parks Melinda F5054 (+)
672 5:00:56 Cefalu Nicole F4044 (+)
673 5:01:04 Minnemann Darren M4549 (+)
674 5:01:12 Ogea Kathryn F2024 (+)
675 5:01:37 Hornberger Robin F4044 (+)
676 5:01:38 Javdell Lauren F3539 (+)
677 5:01:39 White Mary F5559 (+)
678 5:02:03 Baggett Tom M5559 (+)
679 5:02:09 Rohmfeld Bodin M3539 (+)
680 5:02:33 Leblanc Jason M4044 (+)
681 5:02:42 Rivero Catalina F3539 (+)
682 5:03:13 Willhelm Chasidy F3539 (+)
683 5:03:40 Rhode Jr. Cyrus M7074 (+)
684 5:03:41 Kiefer Rupert M3539 (+)
685 5:03:50 Quick Cathi F5054 (+)
686 5:04:00 Williams Wesley M2529 (+)
687 5:04:34 King Cody M2529 (+)
688 5:04:35 Burns Cameron M2024 (+)
689 5:05:03 Cenci Nick M5559 (+)
690 5:05:43 Lindsay James M4549 (+)
691 5:05:56 Mckinley Kristin F3539 (+)
692 5:06:24 Shelley Haley F2529 (+)
693 5:06:39 Stephenson Aaron M2529 (+)
694 5:06:46 Webre Melissa F3539 (+)
695 5:06:53 Leblanc Melissa F4044 (+)
696 5:07:15 Scott Paul M3034 (+)
697 5:07:37 Walden Avery M5054 (+)
698 5:08:08 Cartwright Charity F3539 (+)
699 5:08:40 Lark Jennifer F3034 (+)
700 5:08:58 Dupin Jesse M3034 (+)
701 5:08:58 Victoriano Beth F3539 (+)
702 5:09:00 Landry Melissa F4549 (+)
703 5:09:03 Steele Julianne F3034 (+)
704 5:09:17 Flora Leeann F5559 (+)
705 5:09:20 Horn Kody M3034 (+)
706 5:10:14 Brennan Karen F5054 (+)
707 5:10:51 Bridwell Adam M3034 (+)
708 5:10:52 Martin Elisabeth F2529 (+)
709 5:11:06 Bland Kevin M2529 (+)
710 5:11:44 Rossi Lynette F5054 (+)
711 5:13:15 Capetillo Leslie Ann F5559 (+)
712 5:13:17 Maples Natalie F3034 (+)
713 5:13:31 Ferguson Chrissy F5559 (+)
714 5:13:31 Martin Melissa F5054 (+)
715 5:13:31 Oliver Brooke F2529 (+)
716 5:14:29 Donatto Courtney F3539 (+)
717 5:14:29 Brumund Traci F4549 (+)
718 5:14:45 Graham Bobby M6064 (+)
719 5:15:07 Turner Monica F4044 (+)
720 5:15:10 Leshe Garrah F3539 (+)
721 5:15:17 Freeman Laundi F2529 (+)
722 5:15:20 Kiihnl Kendal M4044 (+)
723 5:15:45 Farris Amber F3034 (+)
724 5:15:45 Rockwell Daniel M1619 (+)
725 5:15:51 Villalon Anahi F4044 (+)
726 5:16:02 Villalon Aaron M4044 (+)
727 5:16:18 Watkins Patricia F6064 (+)
728 5:16:18 Price Shauna F4549 (+)
729 5:16:23 Banks Lloyd M2024 (+)
730 5:16:24 Lomeli Nick M3034 (+)
731 5:16:32 Del Castillo Daniel M3539 (+)
732 5:16:39 Pilman Breezy F4044 (+)
733 5:16:46 Havard Jennifer F4549 (+)
734 5:16:49 Charlet Aimee F4044 (+)
735 5:17:13 Davis Charla F3034 (+)
736 5:17:34 Anderson Tracy F4549 (+)
737 5:17:54 Anderson Alex F2024 (+)
738 5:18:01 Bereron Dylan M1619 (+)
739 5:18:54 Wheeler John M4044 (+)
740 5:19:33 Cassreino Toni F3539 (+)
741 5:19:33 Marquardt Tina F5054 (+)
742 5:20:25 Watts Matthew M6064 (+)
743 5:20:54 Cervantes Norman M2024 (+)
744 5:21:03 Ayers James M4549 (+)
745 5:21:26 Mclaughlin Tracy F4044 (+)
746 5:21:48 Davis Jeni F4044 (+)
747 5:21:56 Hill Walker M4044 (+)
748 5:22:02 Deranzo Francesca F3034 (+)
749 5:22:02 Occena Luis M5559 (+)
750 5:22:41 Templet Cassie F3034 (+)
751 5:22:46 Martin Ashley F4044 (+)
752 5:22:58 Swissler David M5054 (+)
753 5:23:05 Pogue Michale F4549 (+)
754 5:23:53 Walston Halbert M4044 (+)
755 5:24:40 Grove Owen M3034 (+)
756 5:24:40 Grove Jacob M3034 (+)
757 5:24:53 Leonard Cory M4044 (+)
758 5:25:10 Chaisson Angela F4044 (+)
759 5:25:44 Birchman Hannah F3539 (+)
760 5:26:07 Pennison Chantelle F3034 (+)
761 5:26:12 Stotler Gary M3034 (+)
762 5:26:12 Salas Anthony M3539 (+)
763 5:26:36 Jeansonne Jamie F3034 (+)
764 5:26:49 Autin Troy M3034 (+)
765 5:26:52 Landry Katharine F3034 (+)
766 5:26:58 Richmond Jurlene F5054 (+)
767 5:26:59 Loomis Lisa F5559 (+)
768 5:27:19 Blair Scott M3539 (+)
769 5:27:42 Ashford Stephen M3034 (+)
770 5:27:42 Ashford Jessica F3034 (+)
771 5:28:40 Dalton Pamela F4044 (+)
772 5:28:50 Cunanan Francis M4549 (+)
773 5:28:50 Cunanan Maria F4044 (+)
774 5:29:06 Grammer Joe M6064 (+)
775 5:29:13 Beaty Frank M3034 (+)
776 5:29:14 Duval Ranesia F2529 (+)
777 5:29:14 Tregre Abby F2529 (+)
778 5:29:15 Rodrigue Jamie F3539 (+)
779 5:29:16 Callais Erica F3539 (+)
780 5:29:42 Lepkowski Greg M5559 (+)
781 5:29:59 Jenkins Yolanda F5054 (+)
782 5:30:06 Cartwright Margie F4044 (+)
783 5:30:43 Scott Beth F6064 (+)
784 5:30:44 Hernandez Juan M3539 (+)
785 5:30:45 Hernandez Brandi F2529 (+)
786 5:31:33 Randow Davina F4044 (+)
787 5:32:30 Baynham Lori F5559 (+)
788 5:32:46 Frear Justin M3034 (+)
789 5:33:05 Yu David M6569 (+)
790 5:33:48 Thomas Ryan M2529 (+)
791 5:34:31 Miller Nora F5559 (+)
792 5:34:47 Turner Schanon F5054 (+)
793 5:35:08 Almond Sharon F4044 (+)
794 5:35:32 Figuieras Kathleen F5054 (+)
795 5:35:32 Everts Lori F4549 (+)
796 5:35:40 Pirie Robert M3034 (+)
797 5:35:46 Dupont Melissa F3539 (+)
798 5:36:05 Carpenter Shelly F4044 (+)
799 5:36:13 Ardoin Cindy F4549 (+)
800 5:36:14 Cole Roxanne F5559 (+)
801 5:36:15 Moore Colleen F5559 (+)
802 5:36:24 Griffes Chris M6064 (+)
803 5:37:34 Depremio Heather F4044 (+)
804 5:37:46 Dore Stacey F4549 (+)
805 5:37:57 Hellman Julia F2024 (+)
806 5:38:50 Rodriguez Jairo M5054 (+)
807 5:38:52 Pourzand Peter M4044 (+)
808 5:40:33 Hoddle David M5054 (+)
809 5:40:35 Reeves Mallory F2529 (+)
810 5:40:42 Bradley William M5054 (+)
811 5:40:43 Hart Michael M4549 (+)
812 5:40:52 Gray Latarsha F4044 (+)
813 5:41:12 Spell Sharon F4044 (+)
814 5:41:17 Bunting Sarah - (+)
815 5:41:21 Binder Michael M6569 (+)
816 5:41:33 Tanner Ana F4549 (+)
817 5:41:42 Walton Faith F4549 (+)
818 5:42:07 Simmons William M2024 (+)
819 5:42:08 Owen Ashley F2529 (+)
820 5:42:14 Arcement Tammie F5054 (+)
821 5:42:55 Karwowski Kazimira F2024 (+)
822 5:43:12 Robertson Misty F3034 (+)
823 5:45:02 Margaglio Claire F3539 (+)
824 5:45:02 Margaglio Matthew M3539 (+)
825 5:46:08 Hardacre Wesley - (+)
826 5:47:07 Beale Jennifer F2529 (+)
827 5:49:39 Fontenot Brian M3539 (+)
828 5:50:17 Beaty Krystle F3034 (+)
829 5:50:57 Crompton Maria F3539 (+)
830 5:51:18 Flick Shana F4044 (+)
831 5:51:18 Atzenhoffer John M4044 (+)
832 5:52:05 Kone William M4549 (+)
833 5:52:42 Smith Taylor M2529 (+)
834 5:52:42 Miller Ellen F5054 (+)
835 5:52:43 Smith Diana F5559 (+)
836 5:53:02 Waldrup Breanna F3034 (+)
837 5:53:02 Olsen Andrew M3034 (+)
838 5:53:40 Johnson Melissa F4549 (+)
839 5:55:24 Slocum Jim M7074 (+)
840 5:55:37 Perron Jennifer F3539 (+)
841 5:56:13 Weeks Jeff M4549 (+)
842 5:56:41 Purpera Johnathon M3034 (+)
843 5:56:59 Hazlewood Lindsey F3034 (+)
844 5:57:01 Reed Stacie F4549 (+)
845 5:58:01 Thompson Charli F3539 (+)
846 5:58:02 Ward Lainey F3539 (+)
847 5:58:16 Allen Cleveland M6064 (+)
848 5:58:52 Brunson Greg M4044 (+)
849 5:58:57 Jones Dave M4044 (+)
850 5:59:17 Anderson Myrna F5054 (+)
851 5:59:39 Davis Kimberly F2529 (+)
852 6:00:36 Gorena Joshua M2529 (+)
853 6:00:36 Sanderson Matt M2529 (+)
854 6:01:41 Runner Unknown M???? (+)
855 6:02:16 Schwartz Bradley M6569 (+)
856 6:02:17 Thompson Willie M6569 (+)
857 6:02:27 Morgan Randa F2529 (+)
858 6:02:39 Barado Jason M3034 (+)
859 6:03:05 Sanchez Troyd M4044 (+)
860 6:03:08 Partridge Bonnie F7074 (+)
861 6:03:26 Herber Kay F6569 (+)
862 6:03:41 Jules Bonnie F4044 (+)
863 6:03:43 Shepherd Rachel F3539 (+)
864 6:03:58 Williams Wanda Gail F5559 (+)
865 6:05:19 Pitre Emily F4044 (+)
866 6:06:10 Shallenberger Peter M1619 (+)
867 6:08:14 Weeks Camille F5559 (+)
868 6:08:17 Childs Claire F3034 (+)
869 6:08:18 Hall Gabrielle F2024 (+)
870 6:08:58 Primo Kinia F4044 (+)
871 6:09:29 Broadnax Edward M5054 (+)
872 6:10:04 Vazquez Rea Felipe M5054 (+)
873 6:11:22 Partin Michael M4044 (+)
874 6:14:07 Wesley Erin F4044 (+)
875 6:14:17 Anderson Kathy F5559 (+)
876 6:15:21 Kobbermann Anne F3539 (+)
877 6:17:09 Huddleston Celeste F3539 (+)
878 6:17:09 Nash Jessica F3539 (+)
879 6:17:42 Lueg Tiffany F4044 (+)
880 6:20:28 Thorson Susan F7074 (+)
881 6:21:56 Endryck Peter M6064 (+)
882 6:22:15 Williams Jennifer F2529 (+)
883 6:23:37 Nagwak Sabrina F3539 (+)
884 6:25:54 Hand Paul M3034 (+)
885 6:26:43 Young Jonathan M4044 (+)
886 6:26:46 Wells Bill M6064 (+)
887 6:27:57 Newsom Avery F2024 (+)
888 6:27:57 Williams Alec - (+)
889 6:30:10 Sutton Jo Ann F5559 (+)
890 6:31:41 Hickman Lisa F5559 (+)
891 6:32:36 Albrecht Mary F6064 (+)
892 6:32:52 Lenari Mary F7074 (+)
893 6:33:00 Rustad Candace F3539 (+)
894 6:34:27 Broussard Kim M5559 (+)
895 6:34:30 Kelsch Annette F5054 (+)
896 6:35:09 Williams Macie F4044 (+)
897 6:35:10 Wade Brittany F2529 (+)
898 6:35:34 Mallini Iii Thomas M3539 (+)
899 6:36:17 Rutherford Stephen M2529 (+)
900 6:36:29 Huggins Billy M3034 (+)
901 6:38:45 Concannon John M7074 (+)
902 6:38:54 Fremin Mandi F3034 (+)
903 6:40:34 Hoffman Bryan M4549 (+)
904 6:41:03 Garner Philip M5054 (+)
905 6:41:20 Leboutillier Ken M5559 (+)
906 6:41:54 Harms Wendy F4549 (+)
907 6:41:54 Lemmler Lauren F5054 (+)
908 6:42:19 Landry Joan F4549 (+)
909 6:42:57 Jordan Robbin F4549 (+)
910 6:44:29 Chesson Clem F6064 (+)
911 6:45:01 Sevin Jennifer F3539 (+)
912 6:45:22 Earles Carol F4549 (+)
913 6:48:58 Callahan Iii James M M3539 (+)
914 6:51:13 Webber Sandra F75UP (+)
915 6:53:04 Clark Teal F5054 (+)
916 6:53:07 Gohn Sr. Randall M4044 (+)
917 7:01:46 Mast Ryan M3539 (+)
918 7:06:35 Marshall Jennifer F4044 (+)
919 7:06:36 Olsen Taylor F1619 (+)
920 7:06:36 Olsen Amy F4044 (+)